星链-2285 (STARLINK-2285 )

导读 | 豆包AI

STARLINK-2285是美国太空探索技术公司SpaceX星链星座中的一员,于2021年3月24日发射升空。它运行在550公里左右的近地轨道,工作于Ku和Ka波段,依托相控阵波束成形技术,为全球偏远地区、网络基础设施薄弱区域提供高速卫星互联网接入服务,助力实现全球宽带覆盖的星链组网目标,推动太空互联网基础设施建设。

Basic Information
目录编号:
48019
目录名称:
STARLINK-2285
国际标识:
2021-024AU
轨道中心:
EARTH
卫星名称:
星链-2285
卫星全名:
星链-2285 (STARLINK-2285 )
卫星状态:
在轨 (已飞行1816 天)
发射日期:
2021-03-24 UTC
国别 :
美国 (US)
星等 :
--
Orbit Information
数据来源 国际轨道数据 AOE轨道数据
星历时间 2026-03-14T05:05:36+0800
19小时前
查看轨道信息
2026-03-12T15:00:00+0800
2天前
查看轨道信息
半长轴 6853.356km 6853.477km
偏心率 0.0000812 0.0000872
轨道倾角 53.156° 53.155°
近地点辐角 84.360° 62.665°
升交点赤经 287.403° 294.778°
平近点角 275.749° 189.025°
近地点 474.662km 474.742km
远地点 475.776km 475.938km
周期 94.105分钟 94.108分钟
每日圈数 15.301988 15.301584
Detailed Information
固有亮度:
5
最大亮度:
2.5
卫星平台:
Starlink V1.0
覆盖范围:
全球
运营商:
太空探索技术公司
运营商所在国:
美国
制造商(研发单位):
太空探索技术公司
制造商所在国:
美国
使用方式:
暂无
Satellite Introduction
星链(Starlink)计划是由太空探索技术公司(SpaceX)提出的一个巨型低轨卫星互联网星座项目,计划在2019年至2024年间在太空搭建由约1.2万颗卫星组成的“星链”网络,其中1584颗将部署在地球上空550千米处的近地轨道,并从2020年开始工作。该卫星仍在工作。
2D Orbit Map
3D Orbit Map
Orbit Altitude Analysis Chart
Orbit Inclination Analysis Chart
Orbit Comprehensive Analysis Chart
View Comprehensive Chart